Regional Weather Roundup
Issued by NWS

Home | Current Version | Previous Version | Graphics & Text | Print | Product List | Glossary On
Versions: 1 2 3 4 5 6 7 8 9 10 11 12 13 14 15 16 17 18 19 20 21 22 23 24 25 26 27 28 29 30 31 32 33 34 35 36 37 38 39 40 41 42 43 44 45 46 47 48 49 50
000
ASUS44 KMEG 240810
RWRTN
TENNESSEE HOURLY STATE WEATHER ROUNDUP
NATIONAL WEATHER SERVICE MEMPHIS TN
200 AM CST SAT FEB 24 2018

TNZ002-004-019-021-049-052-054-088>092-240900-
WEST TENNESSEE

CITY           SKY/WX    TMP DP  RH WIND       PRES   REMARKS
MEMPHIS INTL   CLOUDY    59  59 100 SE6       30.05F FOG
NWS MEMPHIS      N/A     59 N/A N/A MISG        N/A
JACKSON        CLOUDY    60  60 100 E3        30.07F
DYERSBURG      CLOUDY    56  55  97 E5        30.08F
COVINGTON      CLOUDY    57  55  94 E6        30.07F
UNION CITY     CLOUDY    55  55 100 CALM      30.08F FOG
BOLIVAR        CLOUDY    63  63 100 CALM      30.07F
PARIS          CLOUDY    57  55  94 E8        30.07F
LEXINGTON      CLOUDY    63  61  94 SE5       30.09F FOG
SELMER         CLOUDY    63  63 100 S5        30.08F
SAVANNAH       CLOUDY    63  63 100 S3        30.09F
$$

TNZ008-025-027-028-033-062-065-066-240900-
NORTH MIDDLE TENNESSEE

CITY           SKY/WX    TMP DP  RH WIND       PRES   REMARKS
NASHVILLE      LGT RAIN  60  58  92 CALM      30.14S
PORTLAND       CLOUDY    59  59 100 SE5       30.11F
CLARKSVILLE    LGT RAIN  57  55  93 SE5       30.11F FOG
SMYRNA         LGT RAIN  59  58  96 CALM      30.14F
COOKEVILLE     CLOUDY    63  57  82 CALM      30.13F
GALLATIN       CLOUDY    59  59 100 CALM      30.14F FOG
CROSSVILLE     FAIR      65  55  70 VRB6      30.17F
$$

TNZ061-075-076-078-094-096-097-240900-
SOUTH MIDDLE TENNESSEE

CITY           SKY/WX    TMP DP  RH WIND       PRES   REMARKS
FAYETTEVILLE   CLOUDY    61  61 100 SW3       30.16F FOG
TULLAHOMA      CLOUDY    59  59 100 S5        30.16R FOG
WINCHESTER     CLOUDY    61  57  88 W6        30.17R
MCMINNVILLE    CLOUDY    61  57  88 CALM      30.14F
COLUMBIA       CLOUDY    63  63 100 CALM      30.09F
SHELBYVILLE    CLOUDY    61  59  94 S6        30.15S FOG
$$

TNZ017-018-042-046-047-240900-
NORTHEAST TENNESSEE

CITY           SKY/WX    TMP DP  RH WIND       PRES   REMARKS
TRI CITIES     MOCLDY    57  54  89 CALM      30.20F
ELIZABETHTON   FAIR      55  52  88 E5        30.22F
$$

TNZ012-013-036-069-073-074-240900-
CENTRAL EAST TENNESSEE

CITY           SKY/WX    TMP DP  RH WIND       PRES   REMARKS
KNOXVILLE      CLOUDY    63  55  75 W5        30.15F
OAK RIDGE      MOCLDY    63  59  87 CALM      30.17F
DOWNTOWN KNOXV   N/A     57  54  88 CALM      30.17F
GATLINBURG     PTCLDY    59  54  82 NE3       30.16F
JACKSBORO      CLOUDY    70  57  64 S10G17    30.19F
$$

TNZ083-085-099-240900-
SOUTHEAST TENNESSEE

CITY           SKY/WX    TMP DP  RH WIND       PRES   REMARKS
CHATTANOOGA    MOCLDY    68  57  68 SE5       30.15F
$$

SKY/WX REPORTED AS FAIR MEANS FEW OR NO CLOUDS BELOW
12 THOUSAND FEET.




USA.gov is the U.S. government's official web portal to all federal, state and local government web resources and services.